Location: Bush Observatory
(40.2653°N, 94.3194°W)
Time: 12:06:48
(UTC-06:00)

Daily predictions for brighter satellites

Satellite Brightness Start Highest point End
(mag) Time Altitude Azimuth Time Altitude Azimuth Time Altitude Azimuth
Cosmos 2181 Rocket 4.0 18:25:29 10° N 18:31:47 71° E 18:38:08 10° SSE
Cosmos 1709 Rocket 4.1 18:27:28 10° S 18:33:41 88° W 18:39:51 10° N
FENGYUN 3A 4.5 18:29:20 10° SE 18:33:59 30° ENE 18:38:38 10° N
Cosmos 1850 Rocket 4.0 18:28:47 10° S 18:34:05 75° ESE 18:39:26 10° NNE
Cosmos 2074 Rocket 4.4 18:30:24 10° SSE 18:36:11 41° E 18:42:00 10° NNE
SKYMED 2 3.9 18:34:16 10° N 18:38:36 71° WNW 18:42:55 10° SSW
Meteor 1-28 Rocket 3.4 18:37:30 10° N 18:41:20 78° WNW 18:45:08 10° SSW
Cosmos 2208 Rocket 4.1 18:36:21 10° NNW 18:41:48 70° ENE 18:47:09 10° SSE
METEOR-M 4.1 18:38:21 10° SSE 18:43:38 67° ENE 18:48:56 10° N
Cosmos 2333 Rocket 2.9 18:39:13 10° N 18:44:25 33° ENE 18:49:35 10° ESE
Genesis I 4.1 18:40:44 10° NW 18:44:35 52° WSW 18:48:23 10° SSE
Cosmos 2184 Rocket 4.3 18:38:55 10° SSE 18:44:52 46° E 18:50:47 10° NNE
Helios 1B rocket 4.3 18:45:53 10° ENE 18:47:18 11° E 18:48:43 10° ESE
Cosmos 1975 4.4 18:52:58 10° ESE 18:55:22 15° E 18:57:47 10° NE
Meteor 1-11 Rocket 4.1 18:49:37 10° SSW 18:55:27 75° W 19:01:25 10° N
Cosmos 1437 4.4 18:53:32 10° NNE 18:55:45 17° ENE 18:56:58 14° E
Okean 1-7 Rocket 3.6 18:57:51 10° N 19:02:23 88° ENE 19:06:50 10° S
Cosmos 2082 4.3 19:02:02 10° SSE 19:07:04 33° ESE 19:12:07 10° NE
Meteor 1-5 Rocket 4.3 19:05:05 10° S 19:11:01 78° E 19:16:53 10° NNE
ATLAS CENTAUR R/B 1.8 19:08:02 10° SSW 19:12:24 39° SE 19:13:24 27° E
Cosmos 2154 Rocket 4.3 19:08:49 10° SSE 19:14:42 42° E 19:20:35 10° NNE
Cosmos 1763 Rocket 4.2 19:12:58 10° N 19:17:33 31° ENE 19:20:13 20° ESE
Hubble Space Telescope 2.9 19:15:28 10° SW 19:18:00 16° S 19:20:15 11° SE
Cosmos 2285 Rocket 4.0 19:12:38 10° NNW 19:19:06 86° ENE 19:25:30 10° SSE
Cosmos 1455 Rocket 3.5 19:15:42 10° SSE 19:19:43 37° E 19:23:44 10° NNE
FengYun 1-2 T 4.1 19:16:00 10° SSE 19:21:27 76° ENE 19:26:59 10° N
Cosmos 405 Rocket 2.7 19:18:59 10° N 19:23:00 62° E 19:26:56 10° SSE
Cosmos 2237 Rocket 2.4 19:19:49 10° NNW 19:25:23 51° ENE 19:29:45 16° SE
Cosmos 2297 Rocket 2.5 19:20:50 10° S 19:26:05 41° ESE 19:31:20 10° NE
OAO 3 Rocket 4.2 19:21:51 10° SW 19:26:15 32° SSE 19:28:19 23° ESE
H-2A R/B 2.6 19:23:52 10° SSE 19:27:31 60° ENE 19:31:15 10° N
ALOS 2.3 19:23:39 10° SSE 19:28:19 84° WSW 19:33:01 10° NNW
SAR-Lupe-4 4.0 19:29:01 34° ESE 19:29:49 39° ENE 19:33:12 10° N
CZ-2D R/B 3.3 19:30:04 21° SE 19:32:22 50° ENE 19:36:05 10° N
SJ-6B 4.1 19:30:44 10° S 19:34:30 42° W 19:38:13 10° NNW
Cosmos 2219 Rocket 2.2 19:28:54 10° NNW 19:34:31 81° WSW 19:40:08 10° SSE
COSMOS 2428 3.9 19:29:41 10° NW 19:35:03 44° WSW 19:40:24 10° S
Cosmos 371 Rocket 4.2 19:31:09 10° N 19:35:24 29° ENE 19:35:47 29° ENE
Resurs 01 Rocket 1.8 19:42:15 10° S 19:46:39 71° WSW 19:51:03 10° NNW
Cosmos 2227 Rocket 2.1 19:41:12 10° SSW 19:46:51 82° ESE 19:52:33 10° NNE
Cosmos 1441 Rocket 3.3 19:45:21 10° N 19:49:17 56° ENE 19:49:21 56° E
USA 229 DEB 4.5 19:42:51 10° NW 19:49:46 54° WSW 19:56:47 10° SSE
USA 229 4.5 19:42:56 10° NW 19:49:52 55° WSW 19:56:54 10° SSE
Cosmos 468 Rocket 4.3 19:44:49 10° NNW 19:50:03 70° WSW 19:55:18 10° S
Resurs 1-3 3.7 19:47:41 10° S 19:52:04 74° W 19:56:28 10° NNW
Spot 2 Rocket 3.8 19:50:36 10° S 19:55:37 65° WSW 20:00:41 10° NNW
Cosmos 1892 Rocket 4.2 19:54:20 10° NNW 19:58:37 55° W 20:02:54 10° S
BREEZE-M DEB (TANK) 3.4 19:56:34 10° W 19:59:20 33° NW 19:59:20 33° NW
Meteor 1-12 Rocket 4.3 19:56:11 10° S 20:02:10 88° E 20:08:05 10° N
NOSS 3-1 (A) 4.0 19:55:01 10° NNW 20:02:38 70° NE 20:06:34 34° SE
SL-16 R/B 2.5 19:57:22 10° NNW 20:02:48 44° ENE 20:03:02 44° ENE
ERS-1 Rocket 4.4 20:05:00 23° NNE 20:05:00 23° NNE 20:07:24 10° N
GPS 2-04 Rocket1 3.7 19:59:55 10° WSW 20:03:52 37° S 20:04:06 37° S
OTV 4 2.2 20:01:18 10° WSW 20:03:01 29° WSW 20:03:01 29° WSW
GEOS 3 Rocket 3.5 20:01:29 27° NE 20:04:27 79° SE 20:09:44 10° SSW
Abrixas rocket 4.3 20:02:44 10° WNW 20:05:21 21° N 20:05:21 21° N
ATLAS 2AS CENTAUR R/B 3.9 20:00:58 10° NNW 20:07:50 29° NE 20:09:17 27° NE
Envisat 3.1 20:12:39 56° NE 20:12:39 56° NE 20:17:13 10° N
Atlas Centaur 2 3.5 20:05:58 10° SW 20:12:19 30° S 20:13:02 29° SSE
NOSS 3-1 (C) 4.1 20:11:39 10° NW 20:19:20 79° WSW 20:24:01 30° SSE
Cosmos 1295 Rocket 4.3 20:13:57 10° S 20:20:09 82° E 20:26:30 10° N
Helios 1B rocket 3.1 20:18:51 10° N 20:22:56 55° WNW 20:26:58 10° SSW
SL-8 Rocket 3.9 20:17:55 10° S 20:24:07 68° E 20:30:24 10° NNE
BREEZE-M DEB (TANK) 4.2 20:25:16 10° WNW 20:28:38 39° SSW 20:31:05 29° SSE
Cosmos 2333 Rocket 3.6 20:23:28 10° NW 20:28:39 36° WSW 20:33:50 10° S
USA 32 4.2 20:24:49 10° N 20:30:00 68° W 20:31:43 42° SSW
Helios 1A 4.1 20:29:34 38° SW 20:30:16 42° W 20:34:14 10° NNW
Cosmos 1975 4.4 20:27:49 10° SW 20:31:32 35° WNW 20:35:18 10° N
Cosmos 841 Rocket 4.3 20:45:49 10° NNW 20:50:43 45° WSW 20:50:47 45° WSW
Cosmos 2237 Rocket 4.3 21:04:46 10° NW 21:09:01 22° W 21:11:41 16° SW
Cosmos 2297 Rocket 4.0 21:05:21 10° WSW 21:10:13 29° WNW 21:15:06 10° N
SL-16 R/B 4.3 21:42:03 10° NW 21:44:57 22° WNW 21:44:57 22° WNW
ATLAS 2AS CENTAUR R/B 3.9 21:51:44 10° NW 21:56:44 42° NW 21:56:44 42° NW
